Terug naar catalogus

STARLINK-31208

ActiefCommunicatieVLEO
NORAD 59037·PAYLOAD·🇺🇸 United States

Gelanceerd Feb 25, 2024 vanaf Cape Canaveral Space Force Station

Loading…

Volgende Passages (komende 24 uur)

TLE

VersSource: CelesTrak SupGP

Epoch: Sep 15, 2026, 02:04 UTC

1 59037C 24038Q   26258.08659722 -.00022024  00000+0 -79752-3 0  2585
2 59037  43.0042  37.8783 0001798 267.9509 251.0443 15.27596816    18

Volg STARLINK-31208 in realtime met AllMySat

Download on the App Store